User: anonymous   Login
Location: Unspecified
(0.0000°N, 0.0000°E)
Time: 22:00:52
(UTC+00:00)
Language:

USA 176 - Orbit

View from above orbital plane
View from above orbital plane
View from above satellite
View from above satellite

Ground track
Ground track

The orbit data is extracted from the following two-line orbital elements,

1 28158U 04004A   19290.90241532 -.00000210  00000-0  00000+0 0  9992
2 28158   8.8546  40.5841 0000478 251.4327 146.3140  1.00269754  7204
Epoch (UTC): 17 October 2019 21:39:28
Eccentricity: 0.0000478
inclination: 8.8546°
perigee height: 35785 km
apogee height: 35789 km
right ascension of ascending node: 40.5841°
argument of perigee: 251.4327°
revolutions per day: 1.00269754
mean anomaly at epoch: 146.3140°
orbit number at epoch: 720

The dashed part of the orbit path shows where the satellite is in the earth's shadow,  

DLR